This is the latest recevied weather packets stored in our database for station/object KD4IZ-13. If no packets are shown the sender has not sent any weather packets the latest 10 day(s).
| Time | Temp. | Humidity | Pressure | Rain* | Wind** | Luminosity | Snow |
|---|---|---|---|---|---|---|---|
| 1777648471 | 12.78° C | 55% | 1015.8 hPa | 0 mm | - | 770 W/m² | - |
| 1777648167 | 13.89° C | 58% | 1016.1 hPa | 0 mm | - | 736 W/m² | - |
| 1777647862 | 12.78° C | 56% | 1015.9 hPa | 0 mm | - | 735 W/m² | - |
| 1777647559 | 12.78° C | 55% | 1016 hPa | 0 mm | - | 829 W/m² | - |
| 1777647256 | 13.33° C | 56% | 1016.1 hPa | 0 mm | - | 818 W/m² | - |
| 1777646954 | 12.78° C | 59% | 1016.2 hPa | 0 mm | - | 701 W/m² | - |
| 1777646649 | 12.78° C | 58% | 1016.1 hPa | 0 mm | - | 616 W/m² | - |
| 1777646345 | 12.78° C | 59% | 1016.2 hPa | 0 mm | - | 652 W/m² | - |
| 1777646042 | 12.78° C | 60% | 1016.3 hPa | 0 mm | - | 678 W/m² | - |
| 1777645738 | 12.78° C | 54% | 1016.1 hPa | 0 mm | - | 634 W/m² | - |
| 1777645435 | 12.78° C | 57% | 1016.3 hPa | 0 mm | - | 599 W/m² | - |
| 1777645131 | 12.22° C | 60% | 1016.2 hPa | 0 mm | - | 547 W/m² | - |
| 1777644827 | 12.78° C | 60% | 1016.1 hPa | 0 mm | - | 619 W/m² | - |
| 1777644526 | 12.22° C | 59% | 1016.1 hPa | 0 mm | - | 607 W/m² | - |
| 1777644221 | 11.67° C | 61% | 1016.1 hPa | 0 mm | - | 539 W/m² | - |
| 1777643918 | 11.67° C | 62% | 1015.9 hPa | 0 mm | - | 496 W/m² | - |
| 1777643616 | 11.67° C | 63% | 1016.3 hPa | 0 mm | - | 563 W/m² | - |
| 1777643313 | 11.67° C | 59% | 1016.3 hPa | 0 mm | - | 570 W/m² | - |
| 1777643009 | 11.11° C | 65% | 1016.3 hPa | 0 mm | - | 459 W/m² | - |
| 1777642705 | 10.56° C | 64% | 1016.3 hPa | 0 mm | - | 369 W/m² | - |
| 1777642403 | 10.56° C | 63% | 1016.3 hPa | 0 mm | - | 452 W/m² | - |
| 1777642099 | 10.56° C | 65% | 1016.2 hPa | 0 mm | - | 362 W/m² | - |
| 1777641795 | 10.56° C | 65% | 1016.4 hPa | 0 mm | - | 481 W/m² | - |
| 1777641490 | 11.11° C | 64% | 1016.5 hPa | 0 mm | - | 474 W/m² | - |
| 1777641185 | 11.11° C | 68% | 1016.4 hPa | 0 mm | - | 429 W/m² | - |
* Rain latest hour (hover to see other rain measurements)
** Current wind speed in m/s (hover to see current wind gust speed)